[[{"header":{"parameterUnit":"m.s-1","parameterCategory":1,"la1":30.2991,"la2":30.254,"lo1":-89.0895,"lo2":-89.0444,"dy":0.0017,"dx":0.0017,"nx":28,"ny":28,"refTime":"2024-05-06T21:00:00:Z","depth":0,"parameterNumber":2,"parameterNumberName":"U-component_of_WINDS"},"data":[0,0,0,0,0,0,0,0,0,0,0,0,0,0,0,0,0,0,0,0,0,0,0,0,0,0,0,0,0,0,0,0,0,0,0,0,0,0,0,0,0,0,0,0,0,0,0,0,0,0,0,0,0,0,0,0,0,0,-1.4186,-1.4187,0,-1.4239,-1.424,-1.4241,-1.4238,-1.4238,-1.4237,-1.4236,-1.4293,-1.4295,-1.4297,0,0,0,0,0,0,0,0,0,0,0,0,0,-1.4087,-1.4089,-1.4186,-1.4187,-1.4188,-1.4239,-1.424,-1.4241,-1.4238,-1.4237,-1.4237,-1.4236,-1.4292,-1.4295,-1.4297,0,0,0,0,0,0,0,0,0,0,0,0,0,-1.4134,-1.409,-1.4186,-1.4193,-1.4194,-1.4239,-1.424,-1.4241,-1.4239,-1.4237,-1.4236,-1.4235,-1.4291,-1.4295,-1.4298,-1.4341,0,0,-1.4308,-1.4309,0,0,0,0,0,0,0,0,-1.4132,-1.4138,-1.4191,-1.4192,-1.4194,-1.4231,-1.4226,-1.4275,-1.4239,-1.4222,-1.4236,-1.4235,-1.4273,-1.4278,-1.4291,-1.4344,-1.4346,-1.4308,-1.431,-1.4312,-1.4313,0,0,0,0,0,0,0,-1.4128,-1.4136,-1.4207,-1.4192,-1.4193,-1.4194,-1.42,-1.4235,-1.4253,-1.4223,-1.4223,-1.4229,-1.4274,-1.4287,-1.4292,-1.4347,-1.4308,-1.4311,-1.4313,-1.4315,-1.4442,-1.4443,0,0,0,0,0,0,-1.4123,-1.4133,-1.4206,-1.4209,-1.4159,-1.4197,-1.4203,-1.422,-1.4253,-1.4257,-1.423,-1.4229,-1.4282,-1.4288,-1.4294,-1.4349,-1.4312,-1.4315,-1.4317,-1.444,-1.4442,-1.4444,0,0,0,0,0,0,-1.4121,-1.413,-1.4204,-1.4171,-1.418,-1.42,-1.4219,-1.4222,-1.4235,-1.4258,-1.4262,-1.424,-1.4282,-1.4289,-1.433,-1.4351,-1.4316,-1.4319,-1.4439,-1.4441,-1.4443,-1.4458,0,0,0,0,0,0,-1.4118,-1.4129,-1.4144,-1.4171,-1.4182,-1.4237,-1.422,-1.4224,-1.4241,-1.424,-1.4269,-1.4273,-1.4281,-1.4325,-1.4333,-1.4355,-1.4322,-1.4437,-1.444,-1.4442,-1.4455,-1.446,-1.4464,0,0,0,0,0,-1.4115,-1.4146,-1.4145,-1.4154,-1.4202,-1.4238,-1.4245,-1.4254,-1.4242,-1.4259,-1.4274,-1.4272,-1.4347,-1.4329,-1.4339,-1.4361,-1.4436,-1.4439,-1.4442,-1.4453,-1.4459,-1.4464,0,0,0,0,0,0,-1.4122,-1.415,-1.4149,-1.419,-1.4212,-1.4238,-1.4259,-1.4259,-1.4285,-1.4283,-1.4294,-1.43,-1.4342,-1.4355,-1.4335,-1.4406,-1.439,-1.4395,-1.4396,-1.4401,-1.4405,-1.4401,-1.4325,0,0,0,0,0,-1.4128,-1.4154,-1.4178,-1.4212,-1.4223,-1.4239,-1.4256,-1.4261,-1.4284,-1.4293,-1.4311,-1.4335,-1.4365,-1.4384,-1.4412,-1.4457,-1.4465,-1.4478,-1.4482,-1.4485,-1.449,-1.4518,-1.4524,-1.4454,-1.4454,-1.4454,0,0,-1.4141,-1.416,-1.4176,-1.4214,-1.4231,-1.426,-1.4247,-1.4277,-1.4299,-1.4298,-1.4338,-1.4352,-1.438,-1.4424,-1.4444,-1.4437,-1.4511,-1.4489,-1.4492,-1.4495,-1.4522,-1.4528,-1.4534,-1.4456,-1.4456,-1.4455,0,0,-1.418,-1.4196,-1.4227,-1.4246,-1.4272,-1.4283,-1.4291,-1.4318,-1.4327,-1.4367,-1.4368,-1.4395,-1.4444,-1.4465,-1.4481,-1.4531,-1.453,-1.454,-1.4562,-1.4589,-1.4595,-1.46,-1.4619,-1.4626,-1.4544,-1.4544,-1.4544,0,-1.4194,-1.4236,-1.4244,-1.4275,-1.4292,-1.4293,-1.4326,-1.4343,-1.4378,-1.4391,-1.4382,-1.4446,-1.4465,-1.4515,-1.4527,-1.454,-1.4551,-1.4536,-1.4593,-1.4598,-1.4603,-1.4621,-1.4629,-1.4545,-1.4545,-1.4545,-1.4545,0,-1.4252,-1.4281,-1.4303,-1.4337,-1.4357,-1.4389,-1.4404,-1.4423,-1.4427,-1.444,-1.4482,-1.4505,-1.4538,-1.4551,-1.4554,-1.4602,-1.4597,-1.459,-1.4574,-1.461,-1.4628,-1.4635,-1.4547,-1.4546,-1.4546,-1.4546,0,0,-1.4296,-1.4335,-1.4343,-1.4359,-1.439,-1.4413,-1.4446,-1.4479,-1.4496,-1.4521,-1.455,-1.4594,-1.4589,-1.4608,-1.4614,-1.4638,-1.4678,-1.4629,-1.463,-1.4638,-1.4734,-1.474,-1.4748,-1.4678,-1.4679,-1.468,-1.4733,0,-1.4339,-1.4396,-1.4406,-1.4456,-1.4485,-1.4487,-1.4516,-1.4539,-1.4552,-1.458,-1.4595,-1.4626,-1.4616,-1.4628,-1.4651,-1.4668,-1.4698,-1.4665,-1.4707,-1.4708,-1.4701,-1.4757,-1.4762,-1.481,-1.4739,-1.4741,-1.4741,0,-1.4397,-1.4423,-1.4477,-1.4505,-1.4518,-1.4544,-1.4576,-1.4601,-1.4628,-1.4636,-1.4659,-1.4663,-1.47,-1.4682,-1.4734,-1.4711,-1.4729,-1.4741,-1.4743,-1.4748,-1.4727,-1.4764,-1.4825,-1.4833,-1.4752,-1.4751,-1.4751,0,-1.4426,-1.4475,-1.4513,-1.4527,-1.4561,-1.458,-1.4595,-1.4621,-1.4641,-1.4669,-1.4682,-1.4715,-1.4733,-1.4759,-1.4773,-1.4758,-1.4824,-1.4807,-1.4834,-1.4833,-1.4848,-1.4847,-1.4914,-1.4858,-1.4858,-1.4857,-1.4857,0,-1.4474,-1.4507,-1.4527,-1.4551,-1.4589,-1.4601,-1.4639,-1.4654,-1.4677,-1.4706,-1.471,-1.4737,-1.4753,-1.4783,-1.4794,-1.4837,-1.4844,-1.4853,-1.4856,-1.4854,-1.4853,-1.4866,-1.4864,-1.4859,-1.4859,-1.4859,-1.4858,0,-1.4513,-1.4527,-1.457,-1.4599,-1.4607,-1.4634,-1.466,-1.4684,-1.4698,-1.4734,-1.4744,-1.4766,-1.4801,-1.4818,-1.4862,-1.487,-1.4918,-1.4918,-1.4909,-1.491,-1.4936,-1.4934,-1.5015,-1.5027,-1.4962,-1.4963,-1.4963,0,-1.4543,-1.4568,-1.46,-1.4619,-1.4635,-1.4665,-1.4686,-1.4699,-1.472,-1.4754,-1.4775,-1.4811,-1.484,-1.4898,-1.4919,-1.4953,-1.4955,-1.4981,-1.496,-1.4957,-1.4957,-1.4956,-1.496,-1.4985,-1.4985,-1.4986,-1.4986,0,-1.4595,-1.4602,-1.463,-1.4662,-1.4686,-1.4712,-1.4737,-1.4753,-1.477,-1.4795,-1.4831,-1.4854,-1.4899,-1.4936,-1.4972,-1.499,-1.4992,-1.4993,-1.5001,-1.4999,-1.4993,-1.4998,-1.4921,-1.4991,-1.499,-1.499,-1.499,-1.499,-1.4632,-1.4655,-1.4682,-1.4714,-1.4735,-1.4759,-1.4784,-1.4801,-1.4831,-1.4869,-1.4875,-1.4914,-1.4944,-1.4992,-1.5011,-1.5044,-1.5038,-1.5049,-1.5052,-1.5055,-1.5058,-1.4987,-1.505,-1.505,-1.505,-1.505,-1.505,0,-1.4686,-1.4704,-1.4733,-1.4768,-1.4795,-1.4793,-1.4822,-1.4845,-1.4879,-1.4905,-1.4934,-1.4977,-1.5013,-1.5037,-1.5074,-1.5095,-1.5097,-1.5105,-1.5104,-1.5108,-1.506,-1.505,-1.5102,-1.5102,-1.5102,-1.5102,-1.5102,-1.5102,-1.4718,-1.4758,-1.4768,-1.482,-1.4837,-1.4875,-1.4892,-1.4915,-1.4936,-1.4984,-1.5013,-1.5029,-1.5055,-1.5094,-1.5128,-1.5134,-1.5148,-1.5156,-1.5162,-1.5117,-1.5111,-1.5106,-1.5097,-1.5158,-1.5158,-1.5208,-1.5208,-1.5209]},{"header":{"parameterUnit":"m.s-1","parameterCategory":1,"la1":30.2991,"la2":30.254,"lo1":-89.0895,"lo2":-89.0444,"dy":0.0017,"dx":0.0017,"nx":28,"ny":28,"refTime":"2024-05-06T21:00:00:Z","depth":0,"parameterNumber":3,"parameterNumberName":"V-component_of_WINDS"},"data":[0,0,0,0,0,0,0,0,0,0,0,0,0,0,0,0,0,0,0,0,0,0,0,0,0,0,0,0,0,0,0,0,0,0,0,0,0,0,0,0,0,0,0,0,0,0,0,0,0,0,0,0,0,0,0,0,0,0,6.267,6.267,0,6.2737,6.2737,6.2738,6.2692,6.269,6.2687,6.2686,6.275,6.2754,6.2757,0,0,0,0,0,0,0,0,0,0,0,0,0,6.2497,6.25,6.267,6.267,6.2671,6.2736,6.2737,6.2738,6.2692,6.2689,6.2687,6.2685,6.2749,6.2753,6.2757,0,0,0,0,0,0,0,0,0,0,0,0,0,6.2568,6.2501,6.2669,6.2656,6.2656,6.2736,6.2737,6.2738,6.2693,6.2689,6.2686,6.2683,6.2747,6.2753,6.2758,6.2854,0,0,6.2775,6.2777,0,0,0,0,0,0,0,0,6.2564,6.2575,6.2657,6.2657,6.2657,6.2703,6.27,6.2777,6.2693,6.2678,6.2685,6.2682,6.2736,6.2743,6.2762,6.2857,6.286,6.2775,6.2779,6.2781,6.2782,0,0,0,0,0,0,0,6.2559,6.2572,6.2696,6.2658,6.2658,6.2645,6.2652,6.2714,6.2724,6.2679,6.2676,6.2685,6.2736,6.2757,6.2763,6.2861,6.2775,6.278,6.2783,6.2785,6.3037,6.304,0,0,0,0,0,0,6.2556,6.2568,6.2694,6.2698,6.2602,6.2651,6.2658,6.2691,6.2723,6.2725,6.2688,6.2683,6.2749,6.2757,6.2765,6.2879,6.2781,6.2786,6.2789,6.3034,6.3038,6.3041,0,0,0,0,0,0,6.2553,6.2568,6.2691,6.2632,6.2647,6.2657,6.2694,6.2694,6.2715,6.2729,6.273,6.2708,6.2747,6.2757,6.2832,6.2881,6.2788,6.2793,6.303,6.3035,6.3039,6.3108,0,0,0,0,0,0,6.2548,6.2567,6.2605,6.2633,6.265,6.2759,6.2697,6.2697,6.2725,6.2719,6.2749,6.275,6.2745,6.2824,6.2838,6.2887,6.2798,6.3025,6.3032,6.3038,6.3102,6.3115,6.3127,0,0,0,0,0,6.2542,6.2621,6.2607,6.2623,6.2698,6.2762,6.2771,6.2765,6.2729,6.2766,6.2775,6.2749,6.2873,6.2833,6.2847,6.2898,6.3022,6.303,6.3037,6.3096,6.3112,6.3126,0,0,0,0,0,0,6.2597,6.2625,6.2609,6.27,6.2729,6.2754,6.2801,6.2782,6.2821,6.2814,6.2803,6.281,6.2888,6.29,6.2855,6.2992,6.2942,6.2953,6.2981,6.2997,6.3009,6.3004,6.2802,0,0,0,0,0,6.262,6.2671,6.2692,6.277,6.2785,6.2791,6.2818,6.2811,6.284,6.2851,6.2866,6.2894,6.2938,6.2968,6.3011,6.3103,6.3108,6.3145,6.3158,6.3168,6.3177,6.3226,6.3243,6.3066,6.3066,6.3066,0,0,6.2667,6.2688,6.2721,6.2781,6.2803,6.2854,6.2801,6.2858,6.2896,6.2859,6.2931,6.2943,6.2973,6.3057,6.3095,6.307,6.3227,6.3178,6.3186,6.319,6.3236,6.3252,6.3267,6.3072,6.3071,6.307,0,0,6.278,6.2802,6.2869,6.2891,6.2925,6.2928,6.2944,6.2972,6.2978,6.3051,6.3024,6.3068,6.3146,6.3168,6.319,6.331,6.3287,6.3324,6.3389,6.3437,6.345,6.3463,6.3505,6.352,6.3334,6.3334,6.3334,0,6.2834,6.2912,6.2905,6.2964,6.2991,6.2961,6.3028,6.305,6.3095,6.3113,6.3085,6.3182,6.32,6.3289,6.3318,6.3337,6.3353,6.3321,6.3449,6.3461,6.3473,6.3513,6.3529,6.3338,6.3338,6.3337,6.3337,0,6.2977,6.3031,6.3081,6.3127,6.3158,6.3221,6.3222,6.3255,6.3244,6.325,6.3323,6.3344,6.3389,6.341,6.34,6.3497,6.348,6.3451,6.34,6.3494,6.3531,6.3547,6.3344,6.3343,6.3341,6.334,0,0,6.3126,6.3167,6.3185,6.3205,6.324,6.3281,6.3341,6.3387,6.3415,6.3447,6.3496,6.3563,6.3536,6.356,6.3552,6.3594,6.3687,6.356,6.356,6.3582,6.3794,6.3816,6.3834,6.3672,6.3675,6.3678,6.3791,0,6.324,6.3347,6.3342,6.3442,6.3491,6.3463,6.3516,6.3542,6.3548,6.359,6.3596,6.3643,6.3605,6.3619,6.3659,6.3668,6.373,6.3659,6.3717,6.3719,6.371,6.3853,6.3877,6.3983,6.3806,6.3808,6.381,0,6.3388,6.3426,6.3531,6.3557,6.3578,6.3625,6.3666,6.3707,6.3735,6.3736,6.3764,6.3749,6.3808,6.3756,6.3837,6.3789,6.3812,6.382,6.3824,6.3829,6.377,6.3862,6.4017,6.4033,6.3833,6.3832,6.383,0,6.3486,6.3563,6.3635,6.3653,6.3686,6.372,6.3735,6.376,6.3787,6.3823,6.384,6.3882,6.3904,6.3936,6.3932,6.3894,6.4014,6.3962,6.4016,6.4016,6.4042,6.4041,6.4203,6.4058,6.4058,6.4058,6.4057,0,6.3614,6.3679,6.368,6.3724,6.3796,6.3788,6.3859,6.387,6.3892,6.3937,6.3915,6.3957,6.395,6.3992,6.3989,6.4056,6.4066,6.4068,6.4067,6.407,6.407,6.4085,6.4077,6.4062,6.4061,6.406,6.4059,0,6.3735,6.3739,6.3816,6.384,6.3848,6.3899,6.392,6.3961,6.3965,6.4023,6.4035,6.4042,6.409,6.409,6.4144,6.4142,6.4224,6.4214,6.4215,6.4213,6.4267,6.4262,6.4445,6.4468,6.4309,6.431,6.4311,0,6.3816,6.3866,6.3896,6.3925,6.3942,6.399,6.4018,6.4012,6.4041,6.4077,6.4114,6.416,6.4197,6.4275,6.4284,6.4325,6.4316,6.4377,6.4322,6.4323,6.4316,6.4313,6.4317,6.4388,6.4389,6.4391,6.4392,0,6.396,6.3959,6.4001,6.4044,6.4078,6.4111,6.4142,6.4166,6.4163,6.4198,6.4247,6.4276,6.4332,6.4378,6.4418,6.4431,6.4411,6.4409,6.4424,6.4428,6.4426,6.4427,6.4244,6.4405,6.4404,6.4403,6.4402,6.4402,6.4063,6.4106,6.4134,6.4181,6.4203,6.4232,6.4272,6.4281,6.4323,6.4369,6.4362,6.4417,6.4443,6.4494,6.4511,6.4554,6.4532,6.4553,6.4559,6.4564,6.457,6.442,6.4561,6.456,6.456,6.456,6.4559,0,6.4205,6.4222,6.4265,6.4309,6.4346,6.4324,6.4356,6.4388,6.4437,6.4464,6.45,6.4557,6.4601,6.4613,6.4656,6.4687,6.4679,6.4698,6.4696,6.4699,6.4587,6.457,6.4704,6.4704,6.4704,6.4704,6.4704,6.4704,6.4284,6.4354,6.4356,6.4437,6.4452,6.4507,6.4527,6.4552,6.4573,6.4638,6.4675,6.4683,6.4703,6.4746,6.4786,6.4788,6.4804,6.4828,6.4826,6.4721,6.4707,6.4693,6.4677,6.4831,6.4831,6.4934,6.4935,6.4936]}]]